| time (UTC) | temp C | wind direction | speed KPH | gust KPH | rain 1hr cm | rain 24hr cm | rain mn cm | humidity % | barometer mb |
| 20260505100742 | 2 | 251 | 4.8 | 12.9 | 0.00 | 0.00 | 0.00 | 93 | 1013.6 |
| 20260505100241 | 2 | 196 | 4.8 | 11.3 | 0.00 | 0.00 | 0.00 | 93 | 1013.5 |
| 20260505100010 | 1 | 243 | 4.8 | 11.3 | 0.00 | 0.00 | 0.00 | 93 | 1013.6 |
| 20260505095236 | 1 | 244 | 6.4 | 12.9 | 0.00 | 0.00 | 0.00 | 93 | 1013.6 |
| 20260505095009 | 1 | 245 | 6.4 | 12.9 | 0.00 | 0.00 | 0.00 | 93 | 1013.6 |
| 20260505094236 | 1 | 259 | 4.8 | 11.3 | 0.00 | 0.00 | 0.00 | 93 | 1013.8 |
| 20260505093737 | 1 | 248 | 1.6 | 9.7 | 0.00 | 0.00 | 0.00 | 93 | 1013.8 |
| 20260505093237 | 1 | 237 | 0.0 | 9.7 | 0.00 | 0.00 | 0.00 | 93 | 1013.8 |
| 20260505092738 | 1 | 38 | 0.0 | 0.0 | 0.00 | 0.00 | 0.00 | 93 | 1013.8 |
| 20260505092236 | 1 | 38 | 0.0 | 0.0 | 0.00 | 0.00 | 0.00 | 92 | 1013.8 |
| 20260505091744 | 1 | 38 | 0.0 | 0.0 | 0.00 | 0.00 | 0.00 | 92 | 1013.6 |
| 20260505091504 | 1 | 38 | 0.0 | 0.0 | 0.00 | 0.00 | 0.00 | 93 | 1013.8 |
| 20260505090733 | 1 | 38 | 0.0 | 0.0 | 0.00 | 0.00 | 0.00 | 93 | 1013.9 |
| 20260505090235 | 1 | 38 | 0.0 | 0.0 | 0.00 | 0.00 | 0.00 | 93 | 1013.9 |
| 20260505085735 | 1 | 38 | 0.0 | 0.0 | 0.00 | 0.00 | 0.00 | 93 | 1013.9 |
| 20260505085233 | 1 | 38 | 0.0 | 0.0 | 0.00 | 0.00 | 0.00 | 93 | 1013.9 |
| 20260505084734 | 1 | 73 | 0.0 | 0.0 | 0.00 | 0.00 | 0.00 | 92 | 1013.8 |
| 20260505084232 | 1 | 73 | 0.0 | 0.0 | 0.00 | 0.00 | 0.00 | 93 | 1013.9 |
| 20260505083731 | 1 | 73 | 0.0 | 0.0 | 0.00 | 0.00 | 0.00 | 93 | 1014.1 |
| 20260505083228 | 1 | 73 | 0.0 | 0.0 | 0.00 | 0.00 | 0.00 | 92 | 1014.3 |
| 20260505082726 | 1 | 73 | 0.0 | 0.0 | 0.00 | 0.00 | 0.00 | 92 | 1014.3 |
| 20260505082225 | 1 | 73 | 0.0 | 0.0 | 0.00 | 0.00 | 0.00 | 92 | 1014.4 |
| 20260505081725 | 1 | 73 | 0.0 | 0.0 | 0.00 | 0.00 | 0.00 | 92 | 1014.4 |
| 20260505081218 | 1 | 73 | 0.0 | 0.0 | 0.00 | 0.00 | 0.00 | 93 | 1014.8 |
| 20260505080945 | 1 | 73 | 0.0 | 0.0 | 0.00 | 0.00 | 0.00 | 93 | 1014.9 |
| 20260505080206 | 2 | 73 | 0.0 | 0.0 | 0.00 | 0.00 | 0.00 | 93 | 1014.7 |
| 20260505075701 | 2 | 73 | 0.0 | 0.0 | 0.00 | 0.00 | 0.00 | 93 | 1014.7 |
| 20260505075155 | 2 | 73 | 0.0 | 0.0 | 0.00 | 0.00 | 0.00 | 93 | 1014.7 |
| 20260505074142 | 2 | 73 | 0.0 | 0.0 | 0.00 | 0.00 | 0.00 | 93 | 1014.8 |
| 20260505073636 | 2 | 73 | 0.0 | 0.0 | 0.00 | 0.00 | 0.00 | 93 | 1014.9 |
| 20260505073135 | 2 | 73 | 0.0 | 0.0 | 0.00 | 0.00 | 0.00 | 93 | 1014.9 |
| 20260505072621 | 2 | 73 | 0.0 | 0.0 | 0.00 | 0.00 | 0.00 | 93 | 1015.1 |
| 20260505072115 | 2 | 73 | 0.0 | 0.0 | 0.00 | 0.00 | 0.00 | 93 | 1015.2 |
| 20260505071609 | 2 | 73 | 0.0 | 0.0 | 0.00 | 0.00 | 0.00 | 93 | 1015.2 |
| 20260505071333 | 2 | 73 | 0.0 | 0.0 | 0.00 | 0.00 | 0.00 | 93 | 1015.3 |
| 20260505070556 | 2 | 73 | 0.0 | 0.0 | 0.00 | 0.00 | 0.00 | 93 | 1015.1 |
| 20260505070051 | 2 | 73 | 0.0 | 0.0 | 0.00 | 0.00 | 0.00 | 93 | 1014.9 |
| 20260505065545 | 2 | 73 | 0.0 | 0.0 | 0.00 | 0.00 | 0.00 | 93 | 1014.9 |
| 20260505065038 | 2 | 73 | 0.0 | 0.0 | 0.00 | 0.00 | 0.00 | 93 | 1014.9 |
| 20260505064803 | 2 | 73 | 0.0 | 0.0 | 0.00 | 0.00 | 0.00 | 93 | 1014.9 |
| 20260505064027 | 2 | 73 | 0.0 | 0.0 | 0.00 | 0.00 | 0.00 | 93 | 1015.1 |
| 20260505063526 | 2 | 73 | 0.0 | 6.4 | 0.00 | 0.00 | 0.00 | 93 | 1015.1 |
| 20260505063020 | 2 | 73 | 0.0 | 6.4 | 0.00 | 0.00 | 0.00 | 93 | 1015.2 |
| 20260505062739 | 2 | 73 | 1.6 | 6.4 | 0.00 | 0.00 | 0.00 | 93 | 1015.2 |
| 20260505062002 | 2 | 73 | 3.2 | 6.4 | 0.00 | 0.00 | 0.00 | 93 | 1015.2 |
| 20260505061457 | 2 | 83 | 3.2 | 6.4 | 0.00 | 0.00 | 0.00 | 93 | 1015.1 |
| 20260505060951 | 2 | 78 | 1.6 | 6.4 | 0.00 | 0.00 | 0.00 | 93 | 1015.1 |
| 20260505060444 | 2 | 62 | 0.0 | 4.8 | 0.00 | 0.00 | 0.00 | 93 | 1015.3 |
| 20260505055944 | 2 | 62 | 1.6 | 6.4 | 0.00 | 0.00 | 0.00 | 93 | 1015.3 |
| 20260505055434 | 2 | 71 | 3.2 | 8.0 | 0.00 | 0.00 | 0.00 | 93 | 1015.2 |
| 20260505054942 | 2 | 44 | 3.2 | 8.0 | 0.00 | 0.00 | 0.00 | 93 | 1015.3 |
| 20260505054421 | 2 | 98 | 3.2 | 8.0 | 0.00 | 0.00 | 0.00 | 92 | 1015.3 |
| 20260505053915 | 2 | 53 | 4.8 | 9.7 | 0.00 | 0.00 | 0.00 | 92 | 1015.5 |
| 20260505053410 | 2 | 97 | 3.2 | 9.7 | 0.00 | 0.00 | 0.00 | 92 | 1015.5 |
| 20260505052904 | 2 | 350 | 3.2 | 11.3 | 0.00 | 0.00 | 0.00 | 92 | 1015.5 |
| 20260505052629 | 2 | 28 | 4.8 | 11.3 | 0.00 | 0.00 | 0.00 | 92 | 1015.3 |
| 20260505051852 | 2 | 79 | 3.2 | 11.3 | 0.00 | 0.00 | 0.00 | 92 | 1015.3 |
| 20260505051618 | 2 | 84 | 4.8 | 12.9 | 0.00 | 0.00 | 0.00 | 92 | 1015.5 |
| 20260505050841 | 2 | 57 | 6.4 | 12.9 | 0.00 | 0.00 | 0.00 | 91 | 1015.2 |
| 20260505050339 | 2 | 48 | 4.8 | 11.3 | 0.00 | 0.00 | 0.00 | 91 | 1015.2 |
| 20260505050111 | 2 | 78 | 4.8 | 8.0 | 0.00 | 0.00 | 0.00 | 91 | 1015.3 |
| 20260505041328 | 2 | 36 | 0.0 | 4.8 | 0.00 | 0.00 | 0.00 | 91 | 1015.1 |
| 20260505040829 | 2 | 36 | 0.0 | 4.8 | 0.00 | 0.00 | 0.00 | 91 | 1015.1 |
| 20260505035830 | 2 | 57 | 3.2 | 8.0 | 0.00 | 0.00 | 0.00 | 91 | 1014.8 |
| 20260505035325 | 2 | 57 | 4.8 | 8.0 | 0.00 | 0.00 | 0.00 | 91 | 1014.8 |
| 20260505034825 | 2 | 9 | 4.8 | 8.0 | 0.00 | 0.00 | 0.00 | 91 | 1014.9 |
| 20260505034324 | 2 | 28 | 4.8 | 11.3 | 0.00 | 0.00 | 0.00 | 91 | 1014.8 |
| 20260505033825 | 2 | 62 | 4.8 | 11.3 | 0.00 | 0.00 | 0.00 | 91 | 1014.9 |
| 20260505033324 | 2 | 84 | 1.6 | 8.0 | 0.00 | 0.00 | 0.00 | 91 | 1014.9 |
| 20260505032824 | 2 | 63 | 3.2 | 8.0 | 0.00 | 0.00 | 0.00 | 91 | 1015.1 |
| 20260505032325 | 2 | 69 | 3.2 | 8.0 | 0.00 | 0.00 | 0.00 | 90 | 1014.7 |
| 20260505031824 | 2 | 67 | 3.2 | 9.7 | 0.00 | 0.00 | 0.00 | 90 | 1014.7 |
| 20260505031325 | 2 | 0 | 4.8 | 14.5 | 0.00 | 0.00 | 0.00 | 90 | 1014.7 |
| 20260505030825 | 2 | 40 | 4.8 | 14.5 | 0.00 | 0.00 | 0.00 | 90 | 1014.8 |
| 20260505030326 | 2 | 61 | 3.2 | 11.3 | 0.00 | 0.00 | 0.00 | 90 | 1015.1 |
| 20260505025825 | 2 | 70 | 1.6 | 8.0 | 0.00 | 0.00 | 0.00 | 90 | 1015.2 |
| 20260505025327 | 2 | 65 | 1.6 | 8.0 | 0.00 | 0.00 | 0.00 | 90 | 1015.2 |
| 20260505024825 | 2 | 14 | 3.2 | 8.0 | 0.00 | 0.00 | 0.00 | 90 | 1015.1 |
| 20260505024322 | 2 | 67 | 4.8 | 11.3 | 0.00 | 0.00 | 0.00 | 90 | 1014.7 |
| 20260505023321 | 2 | 58 | 6.4 | 12.9 | 0.00 | 0.00 | 0.00 | 90 | 1014.5 |
| 20260505022825 | 2 | 80 | 6.4 | 12.9 | 0.00 | 0.00 | 0.00 | 90 | 1014.4 |
| 20260505022319 | 2 | 71 | 4.8 | 12.9 | 0.00 | 0.00 | 0.00 | 89 | 1014.4 |
| 20260505022044 | 2 | 61 | 4.8 | 12.9 | 0.00 | 0.00 | 0.00 | 89 | 1014.4 |
| 20260505021306 | 2 | 63 | 6.4 | 12.9 | 0.00 | 0.00 | 0.00 | 89 | 1014.5 |
| 20260505021036 | 2 | 69 | 6.4 | 16.1 | 0.00 | 0.00 | 0.00 | 89 | 1014.7 |
| 20260505020254 | 2 | 65 | 6.4 | 16.1 | 0.00 | 0.00 | 0.00 | 89 | 1014.7 |
| 20260505020023 | 2 | 24 | 6.4 | 16.1 | 0.00 | 0.00 | 0.00 | 89 | 1014.7 |
| 20260505015239 | 2 | 40 | 8.0 | 16.1 | 0.00 | 0.00 | 0.00 | 88 | 1014.8 |
| 20260505014735 | 2 | 59 | 8.0 | 16.1 | 0.00 | 0.00 | 0.00 | 88 | 1014.8 |
| 20260505014227 | 3 | 49 | 8.0 | 17.7 | 0.00 | 0.00 | 0.00 | 88 | 1014.7 |
| 20260505013726 | 3 | 92 | 8.0 | 17.7 | 0.00 | 0.00 | 0.00 | 87 | 1014.5 |
| 20260505013217 | 3 | 76 | 8.0 | 17.7 | 0.00 | 0.00 | 0.00 | 87 | 1014.3 |
| 20260505012949 | 3 | 19 | 9.7 | 20.9 | 0.00 | 0.00 | 0.00 | 86 | 1014.4 |
| 20260505012440 | 3 | 68 | 9.7 | 22.5 | 0.00 | 0.00 | 0.00 | 85 | 1014.5 |
| 20260505011713 | 3 | 61 | 9.7 | 22.5 | 0.00 | 0.00 | 0.00 | 84 | 1014.5 |
| 20260505011209 | 3 | 67 | 9.7 | 22.5 | 0.00 | 0.00 | 0.00 | 82 | 1014.7 |
| 20260505010949 | 4 | 17 | 9.7 | 22.5 | 0.00 | 0.00 | 0.00 | 80 | 1014.9 |
| 20260505010211 | 4 | 78 | 8.0 | 19.3 | 0.00 | 0.00 | 0.00 | 78 | 1014.9 |
| 20260505005715 | 5 | 63 | 9.7 | 25.7 | 0.00 | 0.00 | 0.00 | 75 | 1014.7 |
| 20260505005210 | 5 | 59 | 11.3 | 25.7 | 0.00 | 0.00 | 0.00 | 72 | 1014.7 |
| 20260505004717 | 6 | 55 | 12.9 | 24.1 | 0.00 | 0.00 | 0.00 | 68 | 1014.4 |
| 20260505004209 | 7 | 15 | 12.9 | 30.6 | 0.00 | 0.00 | 0.00 | 62 | 1014.5 |
| 20260505003714 | 8 | 49 | 11.3 | 30.6 | 0.00 | 0.00 | 0.00 | 57 | 1014.4 |
| 20260505003441 | 9 | 11 | 8.0 | 25.7 | 0.00 | 0.00 | 0.00 | 49 | 1014.0 |
| 20260505002948 | 10 | 0 | 6.4 | 17.7 | 0.00 | 0.00 | 0.00 | 45 | 1014.4 |
| 20260505002208 | 10 | 5 | 6.4 | 16.1 | 0.00 | 0.00 | 0.00 | 43 | 1014.3 |
| 20260505001712 | 10 | 14 | 6.4 | 12.9 | 0.00 | 0.00 | 0.00 | 44 | 1013.5 |
| 20260505001209 | 10 | 22 | 4.8 | 14.5 | 0.00 | 0.00 | 0.00 | 44 | 1013.5 |
| 20260505000716 | 10 | 37 | 4.8 | 14.5 | 0.00 | 0.00 | 0.00 | 42 | 1013.6 |
| 20260505000204 | 11 | 37 | 6.4 | 14.5 | 0.00 | 0.00 | 0.00 | 42 | 1013.5 |
| 20260504235658 | 11 | 66 | 4.8 | 14.5 | 0.00 | 0.00 | 0.00 | 41 | 1013.4 |
| 20260504235152 | 11 | 30 | 1.6 | 8.0 | 0.00 | 0.00 | 0.00 | 40 | 1013.5 |
| 20260504234645 | 11 | 53 | 1.6 | 6.4 | 0.00 | 0.00 | 0.00 | 40 | 1013.4 |
| 20260504234414 | 12 | 102 | 3.2 | 8.0 | 0.00 | 0.00 | 0.00 | 39 | 1013.2 |
| 20260504233634 | 12 | 355 | 4.8 | 14.5 | 0.00 | 0.00 | 0.00 | 39 | 1012.8 |
| 20260504233128 | 12 | 0 | 4.8 | 14.5 | 0.00 | 0.00 | 0.00 | 38 | 1013.1 |
| 20260504232622 | 12 | 72 | 3.2 | 11.3 | 0.00 | 0.00 | 0.00 | 36 | 1013.2 |
| 20260504232116 | 13 | 83 | 1.6 | 8.0 | 0.00 | 0.00 | 0.00 | 35 | 1013.2 |
| 20260504231610 | 13 | 5 | 4.8 | 14.5 | 0.00 | 0.00 | 0.00 | 34 | 1013.4 |
| 20260504231334 | 13 | 51 | 4.8 | 14.5 | 0.00 | 0.00 | 0.00 | 35 | 1013.2 |
| 20260504230558 | 13 | 256 | 3.2 | 12.9 | 0.00 | 0.00 | 0.00 | 36 | 1013.1 |
| 20260504230052 | 13 | 76 | 4.8 | 9.7 | 0.00 | 0.00 | 0.00 | 37 | 1013.1 |
| 20260504225546 | 12 | 225 | 6.4 | 12.9 | 0.00 | 0.00 | 0.00 | 38 | 1013.0 |
| 20260504225039 | 12 | 195 | 8.0 | 12.9 | 0.00 | 0.00 | 0.00 | 37 | 1013.2 |
| 20260504224539 | 12 | 195 | 6.4 | 14.5 | 0.00 | 0.00 | 0.00 | 36 | 1013.2 |
| 20260504224031 | 12 | 232 | 4.8 | 14.5 | 0.00 | 0.00 | 0.00 | 38 | 1013.4 |
| 20260504223758 | 12 | 202 | 6.4 | 11.3 | 0.00 | 0.00 | 0.00 | 40 | 1013.2 |
| 20260504223021 | 12 | 188 | 4.8 | 11.3 | 0.00 | 0.00 | 0.00 | 40 | 1013.4 |
| 20260504222514 | 12 | 197 | 4.8 | 11.3 | 0.00 | 0.00 | 0.00 | 41 | 1013.5 |
| 20260504222004 | 12 | 275 | 6.4 | 12.9 | 0.00 | 0.00 | 0.00 | 41 | 1013.8 |
| 20260504221728 | 12 | 184 | 6.4 | 12.9 | 0.00 | 0.00 | 0.00 | 41 | 1013.8 |
| 20260504220952 | 12 | 246 | 6.4 | 22.5 | 0.00 | 0.00 | 0.00 | 41 | 1013.8 |
| 20260504220446 | 12 | 282 | 9.7 | 22.5 | 0.00 | 0.00 | 0.00 | 41 | 1013.6 |
| 20260504215940 | 11 | 212 | 14.5 | 22.5 | 0.00 | 0.00 | 0.00 | 40 | 1013.8 |
| 20260504215705 | 11 | 234 | 14.5 | 24.1 | 0.00 | 0.00 | 0.00 | 37 | 1013.8 |
| 20260504214928 | 11 | 265 | 16.1 | 30.6 | 0.00 | 0.00 | 0.00 | 38 | 1013.8 |
| 20260504214421 | 11 | 244 | 16.1 | 30.6 | 0.00 | 0.00 | 0.00 | 36 | 1013.5 |
| 20260504213916 | 11 | 185 | 14.5 | 29.0 | 0.00 | 0.00 | 0.00 | 37 | 1013.6 |
| 20260504213410 | 11 | 263 | 11.3 | 24.1 | 0.00 | 0.00 | 0.00 | 37 | 1013.6 |
| 20260504212904 | 12 | 200 | 9.7 | 22.5 | 0.00 | 0.00 | 0.00 | 37 | 1013.8 |
| 20260504212631 | 12 | 247 | 6.4 | 19.3 | 0.00 | 0.00 | 0.00 | 36 | 1013.6 |
| 20260504211851 | 12 | 257 | 6.4 | 16.1 | 0.00 | 0.00 | 0.00 | 35 | 1013.6 |
| 20260504211345 | 12 | 217 | 6.4 | 17.7 | 0.00 | 0.00 | 0.00 | 35 | 1013.8 |
| 20260504210840 | 12 | 270 | 8.0 | 17.7 | 0.00 | 0.00 | 0.00 | 35 | 1013.9 |
| 20260504210339 | 12 | 257 | 8.0 | 17.7 | 0.00 | 0.00 | 0.00 | 35 | 1013.8 |
| 20260504205840 | 12 | 236 | 4.8 | 17.7 | 0.00 | 0.00 | 0.00 | 34 | 1013.8 |
| 20260504205337 | 13 | 248 | 4.8 | 16.1 | 0.00 | 0.00 | 0.00 | 37 | 1013.9 |
| 20260504204838 | 13 | 281 | 4.8 | 12.9 | 0.00 | 0.00 | 0.00 | 33 | 1013.8 |
| 20260504204337 | 13 | 311 | 3.2 | 12.9 | 0.00 | 0.00 | 0.00 | 30 | 1013.8 |
| 20260504203836 | 13 | 18 | 3.2 | 16.1 | 0.00 | 0.00 | 0.00 | 28 | 1013.6 |
| 20260504203605 | 13 | 57 | 4.8 | 16.1 | 0.00 | 0.00 | 0.00 | 28 | 1013.8 |
| 20260504202832 | 14 | 208 | 4.8 | 16.1 | 0.00 | 0.00 | 0.00 | 28 | 1013.8 |
| 20260504202332 | 14 | 201 | 3.2 | 16.1 | 0.00 | 0.00 | 0.00 | 29 | 1013.8 |
| 20260504201833 | 14 | 215 | 3.2 | 14.5 | 0.00 | 0.00 | 0.00 | 28 | 1013.8 |
| 20260504201330 | 14 | 112 | 4.8 | 16.1 | 0.00 | 0.00 | 0.00 | 28 | 1013.8 |
| 20260504200831 | 14 | 216 | 6.4 | 24.1 | 0.00 | 0.00 | 0.00 | 28 | 1013.8 |
| 20260504200329 | 14 | 223 | 8.0 | 24.1 | 0.00 | 0.00 | 0.00 | 27 | 1013.9 |
| 20260504195827 | 14 | 240 | 9.7 | 24.1 | 0.00 | 0.00 | 0.00 | 27 | 1013.8 |
| 20260504195327 | 14 | 232 | 8.0 | 24.1 | 0.00 | 0.00 | 0.00 | 28 | 1013.8 |
| 20260504194828 | 13 | 243 | 4.8 | 16.1 | 0.00 | 0.00 | 0.00 | 30 | 1013.9 |
| 20260504194329 | 12 | 281 | 4.8 | 12.9 | 0.00 | 0.00 | 0.00 | 31 | 1014.0 |
| 20260504193828 | 13 | 9 | 6.4 | 17.7 | 0.00 | 0.00 | 0.00 | 30 | 1014.1 |
| 20260504193323 | 12 | 103 | 3.2 | 17.7 | 0.00 | 0.00 | 0.00 | 35 | 1014.3 |
| 20260504193055 | 12 | 22 | 4.8 | 17.7 | 0.00 | 0.00 | 0.00 | 32 | 1014.4 |
| 20260504192323 | 12 | 154 | 9.7 | 24.1 | 0.00 | 0.00 | 0.00 | 30 | 1014.4 |
| 20260504191823 | 12 | 261 | 9.7 | 24.1 | 0.00 | 0.00 | 0.00 | 31 | 1014.5 |
| 20260504191323 | 12 | 202 | 11.3 | 25.7 | 0.00 | 0.00 | 0.00 | 30 | 1014.5 |
| 20260504190825 | 13 | 250 | 12.9 | 25.7 | 0.00 | 0.00 | 0.00 | 29 | 1014.7 |
| 20260504190326 | 13 | 253 | 12.9 | 30.6 | 0.00 | 0.00 | 0.00 | 29 | 1014.4 |
| 20260504185824 | 14 | 236 | 12.9 | 30.6 | 0.00 | 0.00 | 0.00 | 28 | 1014.4 |
| 20260504185325 | 15 | 216 | 11.3 | 24.1 | 0.00 | 0.00 | 0.00 | 27 | 1014.4 |
| 20260504184822 | 15 | 198 | 11.3 | 24.1 | 0.00 | 0.00 | 0.00 | 28 | 1014.4 |
| 20260504184321 | 15 | 239 | 11.3 | 24.1 | 0.00 | 0.00 | 0.00 | 29 | 1014.5 |
| 20260504184053 | 14 | 215 | 9.7 | 24.1 | 0.00 | 0.00 | 0.00 | 30 | 1014.7 |
| 20260504183556 | 13 | 188 | 12.9 | 25.7 | 0.00 | 0.00 | 0.00 | 28 | 1014.7 |
| 20260504183052 | 14 | 240 | 14.5 | 30.6 | 0.00 | 0.00 | 0.00 | 27 | 1014.8 |
| 20260504182321 | 14 | 196 | 14.5 | 35.4 | 0.00 | 0.00 | 0.00 | 27 | 1014.9 |
| 20260504181822 | 15 | 191 | 14.5 | 35.4 | 0.00 | 0.00 | 0.00 | 27 | 1015.2 |
| 20260504181323 | 15 | 185 | 14.5 | 35.4 | 0.00 | 0.00 | 0.00 | 28 | 1015.2 |
| 20260504180822 | 14 | 255 | 12.9 | 35.4 | 0.00 | 0.00 | 0.00 | 27 | 1015.2 |
| 20260504180321 | 14 | 227 | 14.5 | 29.0 | 0.00 | 0.00 | 0.00 | 29 | 1015.3 |
| 20260504180053 | 13 | 203 | 16.1 | 29.0 | 0.00 | 0.00 | 0.00 | 29 | 1015.3 |
| 20260504175321 | 14 | 186 | 12.9 | 30.6 | 0.00 | 0.00 | 0.00 | 28 | 1015.2 |
| 20260504174822 | 14 | 205 | 11.3 | 30.6 | 0.00 | 0.00 | 0.00 | 29 | 1015.3 |
| 20260504174554 | 13 | 205 | 14.5 | 32.2 | 0.00 | 0.00 | 0.00 | 31 | 1015.5 |
| 20260504173820 | 13 | 232 | 14.5 | 32.2 | 0.00 | 0.00 | 0.00 | 31 | 1015.6 |
| 20260504173318 | 13 | 194 | 14.5 | 22.5 | 0.00 | 0.00 | 0.00 | 28 | 1015.7 |
| 20260504172820 | 13 | 225 | 14.5 | 24.1 | 0.00 | 0.00 | 0.00 | 29 | 1015.9 |
| 20260504172319 | 13 | 272 | 12.9 | 24.1 | 0.00 | 0.00 | 0.00 | 28 | 1015.9 |
| 20260504171820 | 13 | 258 | 11.3 | 29.0 | 0.00 | 0.00 | 0.00 | 28 | 1015.9 |
| 20260504171320 | 13 | 240 | 9.7 | 29.0 | 0.00 | 0.00 | 0.00 | 26 | 1016.1 |
| 20260504170819 | 13 | 212 | 6.4 | 25.7 | 0.00 | 0.00 | 0.00 | 31 | 1016.0 |
| 20260504170319 | 13 | 199 | 6.4 | 19.3 | 0.00 | 0.00 | 0.00 | 32 | 1016.1 |
| 20260504160217 | 11 | 234 | 11.3 | 22.5 | 0.00 | 0.00 | 0.00 | 39 | 1016.8 |
| 20260504151118 | 10 | 221 | 9.7 | 22.5 | 0.00 | 0.00 | 0.00 | 47 | 1017.2 |
| 20260504150611 | 9 | 249 | 11.3 | 22.5 | 0.00 | 0.00 | 0.00 | 47 | 1017.3 |
| 20260504141005 | 5 | 248 | 11.3 | 19.3 | 0.00 | 0.00 | 0.00 | 58 | 1017.3 |
| 20260504140459 | 5 | 258 | 9.7 | 19.3 | 0.00 | 0.00 | 0.00 | 62 | 1017.2 |
| 20260504140224 | 3 | 244 | 6.4 | 14.5 | 0.00 | 0.00 | 0.00 | 64 | 1017.2 |
| 20260504130347 | 0 | 51 | 0.0 | 0.0 | 0.00 | 0.00 | 0.00 | 77 | 1016.6 |
| 20260504120235 | -1 | 51 | 0.0 | 0.0 | 0.00 | 0.00 | 0.00 | 76 | 1016.8 |
| 20260504110639 | -1 | 51 | 0.0 | 0.0 | 0.00 | 0.00 | 0.00 | 75 | 1016.6 |
| 20260504110410 | -1 | 51 | 0.0 | 0.0 | 0.00 | 0.00 | 0.00 | 75 | 1016.6 |